Other Public Products
Issued by NWS Charleston, SC

Current Version | Previous Version | Text Only | Print | Product List | Glossary Off
Versions: 1 2 3 4 5 6 7 8 9 10 11 12 13 14 15 16 17 18 19 20 21 22 23 24 25 26 27 28 29 30 31 32 33 34 35 36 37 38 39 40 41 42 43 44 45 46 47 48 49 50

523
FPUS82 KCHS 250912
OPUCHS

TEST...KCHS/KSAV Gateway Observations...TEST
National Weather Service Charleston SC
500 AM EDT SAT MAR 25 2017

NOTE: "fair" indicates few or no clouds below 12,000 feet with no
significant weather and/or obstructions to visibility.

SCZ050-WAZ558-NCZ071-TXZ119-213-PAZ071-DCZ001-FLZ074-172-MI076-
NYZ176-178-MAZ016-IL014-TNZ027-NJZ106-GAZ044-MD014-251000-

...Gateway Observations for Charleston International...

CITY           SKY/WX    TMP DP  RH WIND       PRES   REMARKS
Chas Airport   CLOUDY    59  54  83 SE6       30.29F
Seattle        MOCLDY    45  40  82 S12       30.05R
Charlotte      MOCLDY    55  48  77 S6        30.30F
Dallas DFW     CLEAR     59  46  62 W18G28    29.89S
Dallas Love    PTCLDY    59  45  59 NW18G28   29.90R
Philladelphia  CLOUDY    49  41  74 W8        30.13R
Wash National  CLOUDY    56  48  74 S8        30.15R
Baltimore      MOCLDY    58  47  66 SW3       30.13R
Miami          PTCLDY    71  62  73 E10       30.15F
Detroit        CLOUDY    46  40  79 NE6       30.09S
Newark         CLOUDY    49  35  58 SW8       30.08R
Laguardia      CLOUDY    54  36  50 SW8       30.06F
J F K          MOCLDY    48  39  71 W14       30.09S
Boston Logan   CLOUDY    44  34  67 N9        30.09R
Ft. Lauderdale LGT RAIN  71  62  73 E14G26    30.14F
Chicago O`Hare CLOUDY    41  36  82 NE9       30.04F
Chicago Midway LGT RAIN  42  39  89 N13G22    30.03F
Houston Bush   MOCLDY    72  68  87 S8G17     29.93F
Houston Hobby  MOCLDY    71  68  90 S7        29.94F
Nashville      CLOUDY    65  51  60 S14       30.09S
Atlanta        CLOUDY    59  51  75 SE7       30.24S

$$

GAZ044-118-TXZ119-213-NCZ071-DCZ001-MDZ014-506-PAZ021-071-NJZ106-
NYZ176-178-MAZ106-OHZ011-021-055-MIZ076-KYZ091-ILZ014-INZ047-
MNZ060-ONZ431-251000-

...Gateway Observations for Savannah International...

CITY           SKY/WX    TMP DP  RH WIND       PRES   REMARKS
Savannah Arpt  CLOUDY    57  54  89 CALM      30.27F
Atlanta        CLOUDY    59  51  75 SE7       30.24S
Charlotte      MOCLDY    55  48  77 S6        30.30F
Dallas DFW     CLEAR     59  46  62 W18G28    29.89S
Houston Bush   MOCLDY    72  68  87 S8G17     29.93F
Wash National  CLOUDY    56  48  74 S8        30.15R
Wash Dulles    MOCLDY    56  45  66 S5        30.14S
Baltimore      MOCLDY    58  47  66 SW3       30.13R
Philadelphia   CLOUDY    49  41  74 W8        30.13R
Newark         CLOUDY    49  35  58 SW8       30.08R
Laguardia      CLOUDY    54  36  50 SW8       30.06F
J F K          MOCLDY    48  39  71 W14       30.09S
Boston         CLOUDY    44  34  67 N9        30.09R
Pittsburg      CLOUDY    65  52  62 SW7       30.12S
Akron          CLOUDY    60  50  69 SW8       30.10S
Cleveland      MOCLDY    54  47  77 SE3       30.09F
Cincinnati     CLOUDY    58  51  78 S10       30.10F
Columbus       CLOUDY    60  51  70 S9        30.10S
Detroit        CLOUDY    46  40  79 NE6       30.09S
Chicago O`Hare CLOUDY    41  36  82 NE9       30.04F
Minneapolis    CLOUDY    38  31  76 NE10      30.16F WCI  31
Indianapolis   MOCLDY    60  52  74 SE8       30.01F
Toronto Canada LGT RAIN  37  36  93 NE7       30.15S WCI  32

$$




USA.gov is the U.S. government's official web portal to all federal, state and local government web resources and services.